Regional Weather Roundup
Issued by NWS

Home | Current Version | Previous Version | Graphics & Text | Print | Product List | Glossary On
Versions: 1 2 3 4 5 6 7 8 9 10 11 12 13 14 15 16 17 18 19 20 21 22 23 24 25 26 27 28 29 30 31 32 33 34 35 36 37 38 39 40 41 42 43 44 45 46 47 48 49 50
706
ASUS43 KDMX 271201
RWRIA

WEATHER ROUNDUP FOR IOWA
NATIONAL WEATHER SERVICE DES MOINES IA
700 AM CDT SUN MAY 27 2018

NOTE: "FAIR" INDICATES FEW OR NO CLOUDS BELOW 12,000 FEET WITH NO
SIGNIFICANT WEATHER AND/OR OBSTRUCTIONS TO VISIBILITY.

* - THESE STATIONS ARE NOT NWS STATIONS...THUS NOT UNDER NWS
QUALITY CONTROL.  THEY ALSO DO NOT REPORT WEATHER SUCH
AS PRECIPITATION OR FOG.

IAZ001>003-012>014-020>022-031>034-043>046-271300-
   NORTHWEST IOWA

CITY           SKY/WX    TMP DP  RH WIND       PRES   REMARKS
CARROLL *      SUNNY     66  55  68 CALM      29.82R
CHEROKEE *     CLOUDY    62  62  99 CALM      29.82S
DENISON *      SUNNY     63  59  88 MISG      29.84R
LE MARS *      CLOUDY    66  61  82 CALM      29.80R
ORANGE CITY *  CLOUDY    72  54  53 SE3       29.81S
SHELDON *      CLOUDY    72  54  53 SE6       29.80S
SIOUX CITY     SUNNY     67  58  72 E5        29.80R
6HR MIN TEMP:  65; 6HR MAX TEMP:  75;

SPENCER        CLOUDY    65  60  84 CALM      29.82R
6HR MIN TEMP:  61; 6HR MAX TEMP:  68;

STORM LAKE *   CLOUDY    75  50  41 S5        29.83S
$$

IAZ055>058-069>071-079>083-090>094-271300-
   SOUTHWEST IOWA

CITY           SKY/WX    TMP DP  RH WIND       PRES   REMARKS
ATLANTIC *     SUNNY     64  61  88 CALM      29.84R
AUDUBON *      SUNNY     64  61  88 CALM      29.84S
CLARINDA *     SUNNY     68  66  94 SW3       29.86S
COUNCIL BLFS * SUNNY     75  64  69 S6        29.83R
CRESTON *      SUNNY     70  68  94 CALM      29.85S
HARLAN  *      SUNNY     66  63  88 CALM      29.86S
LAMONI         SUNNY     72  69  90 SW7       29.84R
6HR MIN TEMP:  70; 6HR MAX TEMP:  75;

RED OAK *      SUNNY     68  63  83 CALM      29.84R
SHENANDOAH *   SUNNY     70  64  83 CALM      29.84R
$$

IAZ047>049-059>061-072>074-084-271300-
   CENTRAL IOWA

CITY           SKY/WX    TMP DP  RH WIND       PRES   REMARKS
AMES           SUNNY     67  65  93 CALM      29.82R
6HR MIN TEMP:  63; 6HR MAX TEMP:  70;

ANKENY *       SUNNY     66  66 100 CALM      29.83R
BOONE *        SUNNY     72  63  73 W3        29.82R
CHARITON *     SUNNY     73  70  88 SW6       29.83R
DES MOINES     MOSUNNY   74  69  85 CALM      29.81R
6HR MIN TEMP:  72; 6HR MAX TEMP:  78;

GRINNELL*      SUNNY     72  68  87 S5        29.84R
KNOXVILLE *    SUNNY     72  70  94 CALM      29.82R
MARSHALLTOWN   SUNNY     70  69  97 CALM      29.81R
6HR MIN TEMP:  65; 6HR MAX TEMP:  74;

NEWTON *       SUNNY     70  68  94 S6        29.82S
PELLA *        SUNNY     71  67  88 CALM      29.84R
PERRY *        FAIR      67  61  78 CALM      29.83R
$$

IAZ004>006-015-016-023>025-035-036-271300-
   NORTH CENTRAL IOWA

CITY           SKY/WX    TMP DP  RH WIND       PRES   REMARKS
ALGONA *       PTSUNNY   70  61  73 S3        29.83R
CLARION *      SUNNY     72  63  73 CALM      29.83R
ESTHERVILLE    CLOUDY    65  56  72 S6        29.81S
6HR MIN TEMP:  63; 6HR MAX TEMP:  70;

FORT DODGE *   SUNNY     67  61  81 CALM      29.83R
MASON CITY     SUNNY     68  61  78 CALM      29.84R
6HR MIN TEMP:  61; 6HR MAX TEMP:  69;

FOREST CITY *  FAIR      64  63  94 CALM      29.83R
WEBSTER CITY * SUNNY     70  64  83 S3        29.81R
IOWA FALLS *   FAIR      67  65  93 CALM      29.84R
$$

IAZ007>011-017>019-026>030-037>042-050>054-066-271300-
   NORTHEAST IOWA

CITY           SKY/WX    TMP DP  RH WIND       PRES   REMARKS
CEDAR RAPIDS   FAIR      72  68  87 S6        29.82R
6HR MIN TEMP:  68; 6HR MAX TEMP:  74;

CHARLES CITY * FAIR      68  66  94 CALM      29.83R
CLINTON *        N/A     72  69  90 SE5       29.85R
DECORAH *      FAIR      70  68  94 CALM      29.82R
DUBUQUE        FAIR      70  66  87 S6        29.84R
6HR MIN TEMP:  66; 6HR MAX TEMP:  72;

MONTICELLO *   FAIR      70  68  94 SE5       29.83R
OELWEIN *      FAIR      70  68  94 SE6       29.84R
WATERLOO       FAIR      67  66  97 CALM      29.81R FOG
6HR MIN TEMP:  60; 6HR MAX TEMP:  73;

$$

IAZ064-065-067-068-078-271300-
   EAST CENTRAL IOWA

CITY           SKY/WX    TMP DP  RH WIND       PRES   REMARKS
DAVENPORT      FAIR      71  66  84 S3        29.85R
6HR MIN TEMP:  65; 6HR MAX TEMP:  72;

IOWA CITY      FAIR      72  67  84 CALM      29.84R
6HR MIN TEMP:  69; 6HR MAX TEMP:  76;

MUSCATINE *    FAIR      70  70 100 CALM      29.83R
QUAD CITIES    FAIR      71  66  84 E5        29.83R
6HR MIN TEMP:  65; 6HR MAX TEMP:  71;

$$

IAZ062-063-075>077-085>089-095>099-271300-
   SOUTHEAST IOWA

CITY           SKY/WX    TMP DP  RH WIND       PRES   REMARKS
BURLINGTON     SUNNY     72  68  87 CALM      29.83S
6HR MIN TEMP:  67; 6HR MAX TEMP:  72;

FAIRFIELD *    SUNNY     73  68  83 SW5       29.83R
FORT MADISON * SUNNY     73  72  94 SW6       29.85R
KEOKUK *       SUNNY     73  72  94 SW5       29.84R
CENTERVILLE *    N/A     73  73 100 SW3       29.85S
OTTUMWA        SUNNY     73  69  87 S5        29.83R
6HR MIN TEMP:  70; 6HR MAX TEMP:  73;

WASHINGTON *   SUNNY     72  72 100 S3        29.84R
$$

ABBREVIATIONS USED IN REMARKS
   TC - TEMPERATURES IN CELSIUS
  WCI - WIND CHILL INDEX
   HX - HEAT INDEX
  VSB - VISIBILITY
$$





USA.gov is the U.S. government's official web portal to all federal, state and local government web resources and services.